#datetime,building,power
2022-01-23T00:00:00,pth,4.80
2022-01-23T00:01:00,pth,2.40
2022-01-23T00:03:00,pth,3.60
2022-01-23T00:04:00,pth,2.40
2022-01-23T00:06:00,pth,4.80
2022-01-23T00:08:00,pth,4.80
2022-01-23T00:10:00,pth,4.80
2022-01-23T00:11:00,pth,1.20
2022-01-23T00:12:00,pth,2.40
2022-01-23T00:14:00,pth,4.80
2022-01-23T00:15:00,pth,1.19
2022-01-23T00:17:00,pth,4.80
2022-01-23T00:18:00,pth,2.40
2022-01-23T00:19:00,pth,2.40
2022-01-23T00:21:00,pth,4.80
2022-01-23T00:23:00,pth,4.80
2022-01-23T00:24:00,pth,2.40
2022-01-23T00:26:00,pth,4.80
2022-01-23T00:28:00,pth,3.60
2022-01-23T00:30:00,pth,4.80
2022-01-23T00:31:00,pth,2.40
2022-01-23T00:33:00,pth,4.80
2022-01-23T00:34:00,pth,2.40
2022-01-23T00:36:00,pth,4.80
2022-01-23T00:38:00,pth,4.80
2022-01-23T00:40:00,pth,4.80
2022-01-23T00:42:00,pth,4.80
2022-01-23T00:44:00,pth,4.80
2022-01-23T00:45:00,pth,2.40
2022-01-23T00:47:00,pth,4.80
2022-01-23T00:49:00,pth,3.60
2022-01-23T00:51:00,pth,4.80
2022-01-23T00:53:00,pth,4.80
2022-01-23T00:55:00,pth,4.80
2022-01-23T00:57:00,pth,3.60
2022-01-23T00:58:00,pth,2.40
2022-01-23T01:00:00,pth,3.60
2022-01-23T01:02:00,pth,4.80
2022-01-23T01:04:00,pth,3.60
2022-01-23T01:05:00,pth,2.40
2022-01-23T01:07:00,pth,3.60
2022-01-23T01:08:00,pth,2.40
2022-01-23T01:10:00,pth,4.80
2022-01-23T01:11:00,pth,1.20
2022-01-23T01:13:00,pth,4.80
2022-01-23T01:15:00,pth,3.60
2022-01-23T01:17:00,pth,4.80
2022-01-23T01:19:00,pth,3.60
2022-01-23T01:20:00,pth,2.40
2022-01-23T01:22:00,pth,3.60
2022-01-23T01:24:00,pth,4.80
2022-01-23T01:25:00,pth,1.20
2022-01-23T01:27:00,pth,4.80
2022-01-23T01:29:00,pth,4.80
2022-01-23T01:31:00,pth,3.60
2022-01-23T01:32:00,pth,2.40
2022-01-23T01:34:00,pth,3.60
2022-01-23T01:36:00,pth,3.60
2022-01-23T01:38:00,pth,4.80
2022-01-23T01:39:00,pth,1.20
2022-01-23T01:41:00,pth,4.80
2022-01-23T01:42:00,pth,1.20
2022-01-23T01:44:00,pth,4.80
2022-01-23T01:46:00,pth,3.60
2022-01-23T01:48:00,pth,3.60
2022-01-23T01:50:00,pth,3.60
2022-01-23T01:52:00,pth,4.80
2022-01-23T01:54:00,pth,3.60
2022-01-23T01:56:00,pth,3.60
2022-01-23T01:57:00,pth,2.40
2022-01-23T01:59:00,pth,3.60
2022-01-23T02:01:00,pth,4.80
2022-01-23T02:03:00,pth,3.60
2022-01-23T02:04:00,pth,1.19
2022-01-23T02:06:00,pth,4.80
2022-01-23T02:07:00,pth,2.40
2022-01-23T02:09:00,pth,3.60
2022-01-23T02:11:00,pth,4.80
2022-01-23T02:13:00,pth,3.60
2022-01-23T02:15:00,pth,3.60
2022-01-23T02:17:00,pth,4.80
2022-01-23T02:18:00,pth,2.40
2022-01-23T02:19:00,pth,1.20
2022-01-23T02:21:00,pth,4.80
2022-01-23T02:23:00,pth,3.60
2022-01-23T02:24:00,pth,2.40
2022-01-23T02:26:00,pth,3.60
2022-01-23T02:28:00,pth,4.80
2022-01-23T02:29:00,pth,1.20
2022-01-23T02:30:00,pth,2.40
2022-01-23T02:32:00,pth,3.60
2022-01-23T02:33:00,pth,2.40
2022-01-23T02:35:00,pth,3.60
2022-01-23T02:37:00,pth,4.80
2022-01-23T02:38:00,pth,1.20
2022-01-23T02:40:00,pth,4.80
2022-01-23T02:41:00,pth,1.19
2022-01-23T02:43:00,pth,4.80
2022-01-23T02:44:00,pth,1.20
2022-01-23T02:46:00,pth,4.80
2022-01-23T02:47:00,pth,1.20
2022-01-23T02:49:00,pth,4.80
2022-01-23T02:50:00,pth,2.40
2022-01-23T02:52:00,pth,3.60
2022-01-23T02:54:00,pth,3.60
2022-01-23T02:55:00,pth,2.40
2022-01-23T02:57:00,pth,3.60
2022-01-23T02:58:00,pth,2.40
2022-01-23T03:00:00,pth,3.60
2022-01-23T03:02:00,pth,4.80
2022-01-23T03:04:00,pth,3.60
2022-01-23T03:06:00,pth,3.60
2022-01-23T03:08:00,pth,4.80
2022-01-23T03:09:00,pth,1.20
2022-01-23T03:11:00,pth,3.60
2022-01-23T03:12:00,pth,2.40
2022-01-23T03:14:00,pth,3.60
2022-01-23T03:16:00,pth,4.80
2022-01-23T03:17:00,pth,1.20
2022-01-23T03:18:00,pth,2.40
2022-01-23T03:20:00,pth,3.60
2022-01-23T03:22:00,pth,3.60
2022-01-23T03:24:00,pth,3.60
2022-01-23T03:25:00,pth,2.40
2022-01-23T03:26:00,pth,1.20
2022-01-23T03:28:00,pth,4.80
2022-01-23T03:29:00,pth,1.20
2022-01-23T03:31:00,pth,3.60
2022-01-23T03:32:00,pth,2.40
2022-01-23T03:34:00,pth,3.60
2022-01-23T03:35:00,pth,2.40
2022-01-23T03:37:00,pth,3.60
2022-01-23T03:39:00,pth,3.60
2022-01-23T03:41:00,pth,3.60
2022-01-23T03:42:00,pth,2.40
2022-01-23T03:44:00,pth,3.60
2022-01-23T03:46:00,pth,3.60
2022-01-23T03:48:00,pth,3.60
2022-01-23T03:50:00,pth,4.80
2022-01-23T03:52:00,pth,3.60
2022-01-23T03:53:00,pth,2.40
2022-01-23T03:55:00,pth,3.60
2022-01-23T03:57:00,pth,3.60
2022-01-23T03:59:00,pth,3.60
2022-01-23T04:01:00,pth,3.60
2022-01-23T04:02:00,pth,2.40
2022-01-23T04:04:00,pth,3.60
2022-01-23T04:06:00,pth,4.80
2022-01-23T04:08:00,pth,3.60
2022-01-23T04:10:00,pth,3.60
2022-01-23T04:11:00,pth,2.40
2022-01-23T04:13:00,pth,3.60
2022-01-23T04:15:00,pth,3.60
2022-01-23T04:17:00,pth,3.60
2022-01-23T04:18:00,pth,2.40
2022-01-23T04:19:00,pth,1.20
2022-01-23T04:21:00,pth,4.80
2022-01-23T04:23:00,pth,3.60
2022-01-23T04:24:00,pth,1.20
2022-01-23T04:26:00,pth,3.60
2022-01-23T04:27:00,pth,2.40
2022-01-23T04:28:00,pth,2.40
2022-01-23T04:30:00,pth,3.60
2022-01-23T04:31:00,pth,1.20
2022-01-23T04:32:00,pth,2.40
2022-01-23T04:34:00,pth,3.60
2022-01-23T04:35:00,pth,1.20
2022-01-23T04:37:00,pth,4.80
2022-01-23T04:39:00,pth,3.60
2022-01-23T04:41:00,pth,3.60
2022-01-23T04:43:00,pth,3.60
2022-01-23T04:45:00,pth,3.60
2022-01-23T04:47:00,pth,4.80
2022-01-23T04:49:00,pth,3.60
2022-01-23T04:50:00,pth,1.20
2022-01-23T04:52:00,pth,4.80
2022-01-23T04:54:00,pth,3.60
2022-01-23T04:56:00,pth,3.60
2022-01-23T04:57:00,pth,2.40
2022-01-23T04:58:00,pth,1.20
2022-01-23T05:00:00,pth,4.80
2022-01-23T05:01:00,pth,1.20
2022-01-23T05:03:00,pth,3.60
2022-01-23T05:04:00,pth,2.40
2022-01-23T05:05:00,pth,2.40
2022-01-23T05:07:00,pth,3.60
2022-01-23T05:08:00,pth,1.19
2022-01-23T05:10:00,pth,3.60
2022-01-23T05:12:00,pth,4.80
2022-01-23T05:14:00,pth,3.60
2022-01-23T05:16:00,pth,3.60
2022-01-23T05:18:00,pth,4.80
2022-01-23T05:20:00,pth,3.60
2022-01-23T05:22:00,pth,3.60
2022-01-23T05:24:00,pth,4.80
2022-01-23T05:25:00,pth,1.20
2022-01-23T05:27:00,pth,4.80
2022-01-23T05:29:00,pth,3.60
2022-01-23T05:31:00,pth,4.80
2022-01-23T05:33:00,pth,3.60
2022-01-23T05:35:00,pth,3.60
2022-01-23T05:37:00,pth,4.80
2022-01-23T05:39:00,pth,3.60
2022-01-23T05:41:00,pth,4.80
2022-01-23T05:43:00,pth,3.60
2022-01-23T05:45:00,pth,3.60
2022-01-23T05:47:00,pth,4.80
2022-01-23T05:49:00,pth,3.60
2022-01-23T05:50:00,pth,2.40
2022-01-23T05:52:00,pth,3.60
2022-01-23T05:54:00,pth,3.60
2022-01-23T05:55:00,pth,2.40
2022-01-23T05:57:00,pth,3.60
2022-01-23T05:59:00,pth,3.60
2022-01-23T06:01:00,pth,3.60
2022-01-23T06:03:00,pth,4.80
2022-01-23T06:05:00,pth,3.60
2022-01-23T06:07:00,pth,3.60
2022-01-23T06:08:00,pth,2.40
2022-01-23T06:10:00,pth,3.60
2022-01-23T06:12:00,pth,3.60
2022-01-23T06:13:00,pth,2.40
2022-01-23T06:15:00,pth,3.60
2022-01-23T06:17:00,pth,3.60
2022-01-23T06:19:00,pth,3.60
2022-01-23T06:21:00,pth,4.80
2022-01-23T06:23:00,pth,3.60
2022-01-23T06:25:00,pth,3.60
2022-01-23T06:27:00,pth,3.60
2022-01-23T06:29:00,pth,3.60
2022-01-23T06:31:00,pth,3.60
2022-01-23T06:33:00,pth,4.80
2022-01-23T06:35:00,pth,3.60
2022-01-23T06:36:00,pth,1.19
2022-01-23T06:37:00,pth,2.40
2022-01-23T06:39:00,pth,3.60
2022-01-23T06:41:00,pth,3.60
2022-01-23T06:43:00,pth,3.60
2022-01-23T06:45:00,pth,4.80
2022-01-23T06:47:00,pth,3.60
2022-01-23T06:49:00,pth,3.60
2022-01-23T06:50:00,pth,1.20
2022-01-23T06:52:00,pth,4.80
2022-01-23T06:53:00,pth,1.20
2022-01-23T06:55:00,pth,3.60
2022-01-23T06:56:00,pth,2.40
2022-01-23T06:58:00,pth,3.60
2022-01-23T06:59:00,pth,1.20
2022-01-23T07:01:00,pth,4.80
2022-01-23T07:03:00,pth,3.60
2022-01-23T07:05:00,pth,3.60
2022-01-23T07:06:00,pth,1.20
2022-01-23T07:08:00,pth,4.80
2022-01-23T07:09:00,pth,1.20
2022-01-23T07:11:00,pth,4.80
2022-01-23T07:13:00,pth,3.60
2022-01-23T07:15:00,pth,3.60
2022-01-23T07:16:00,pth,2.40
2022-01-23T07:17:00,pth,1.20
2022-01-23T07:19:00,pth,4.80
2022-01-23T07:20:00,pth,1.20
2022-01-23T07:21:00,pth,2.40
2022-01-23T07:22:00,pth,2.40
2022-01-23T07:24:00,pth,3.60
2022-01-23T07:25:00,pth,1.20
2022-01-23T07:27:00,pth,4.80
2022-01-23T07:29:00,pth,3.60
2022-01-23T07:31:00,pth,2.40
2022-01-23T07:32:00,pth,2.40
2022-01-23T07:34:00,pth,2.40
2022-01-23T07:36:00,pth,3.60
2022-01-23T07:37:00,pth,1.20
2022-01-23T07:39:00,pth,3.60
2022-01-23T07:40:00,pth,1.20
2022-01-23T07:42:00,pth,3.60
2022-01-23T07:43:00,pth,1.20
2022-01-23T07:45:00,pth,3.60
2022-01-23T07:46:00,pth,1.20
2022-01-23T07:48:00,pth,3.60
2022-01-23T07:50:00,pth,2.40
2022-01-23T07:51:00,pth,1.20
2022-01-23T07:53:00,pth,3.60
2022-01-23T07:54:00,pth,1.20
2022-01-23T07:56:00,pth,3.60
2022-01-23T07:57:00,pth,2.40
2022-01-23T07:59:00,pth,2.40
2022-01-23T08:01:00,pth,3.60
2022-01-23T08:03:00,pth,3.60
2022-01-23T08:04:00,pth,1.19
2022-01-23T08:06:00,pth,3.60
2022-01-23T08:08:00,pth,3.60
2022-01-23T08:10:00,pth,3.60
2022-01-23T08:11:00,pth,1.20
2022-01-23T08:13:00,pth,3.60
2022-01-23T08:15:00,pth,3.60
2022-01-23T08:17:00,pth,3.60
2022-01-23T08:18:00,pth,1.20
2022-01-23T08:20:00,pth,3.60
2022-01-23T08:21:00,pth,1.20
2022-01-23T08:23:00,pth,3.60
2022-01-23T08:25:00,pth,3.60
2022-01-23T08:27:00,pth,3.60
2022-01-23T08:29:00,pth,3.60
2022-01-23T08:30:00,pth,1.20
2022-01-23T08:32:00,pth,3.60
2022-01-23T08:34:00,pth,3.60
2022-01-23T08:36:00,pth,3.60
2022-01-23T08:37:00,pth,1.20
2022-01-23T08:39:00,pth,4.80
2022-01-23T08:40:00,pth,1.20
2022-01-23T08:42:00,pth,3.60
2022-01-23T08:44:00,pth,3.60
2022-01-23T08:46:00,pth,2.40
2022-01-23T08:48:00,pth,3.60
2022-01-23T08:49:00,pth,2.40
2022-01-23T08:51:00,pth,3.60
2022-01-23T08:53:00,pth,3.60
2022-01-23T08:55:00,pth,3.60
2022-01-23T08:57:00,pth,3.60
2022-01-23T08:59:00,pth,2.40
2022-01-23T09:01:00,pth,3.60
2022-01-23T09:03:00,pth,4.80
2022-01-23T09:04:00,pth,1.20
2022-01-23T09:06:00,pth,3.60
2022-01-23T09:07:00,pth,2.40
2022-01-23T09:09:00,pth,3.60
2022-01-23T09:11:00,pth,4.80
2022-01-23T09:13:00,pth,3.60
2022-01-23T09:15:00,pth,4.80
2022-01-23T09:17:00,pth,13.21
2022-01-23T09:19:00,pth,14.40
2022-01-23T09:21:00,pth,14.40
2022-01-23T09:22:00,pth,7.20
2022-01-23T09:24:00,pth,10.80
2022-01-23T09:26:00,pth,10.80
2022-01-23T09:28:00,pth,13.20
2022-01-23T09:29:00,pth,4.80
2022-01-23T09:31:00,pth,10.80
2022-01-23T09:33:00,pth,12.00
2022-01-23T09:35:00,pth,9.59
2022-01-23T09:37:00,pth,10.80
2022-01-23T09:39:00,pth,10.80
2022-01-23T09:41:00,pth,10.80
2022-01-23T09:43:00,pth,10.80
2022-01-23T09:45:00,pth,9.59
2022-01-23T09:47:00,pth,10.80
2022-01-23T09:49:00,pth,10.80
2022-01-23T09:50:00,pth,7.20
2022-01-23T09:52:00,pth,10.80
2022-01-23T09:54:00,pth,14.40
2022-01-23T09:55:00,pth,7.20
2022-01-23T09:56:00,pth,7.20
2022-01-23T09:57:00,pth,7.20
2022-01-23T09:58:00,pth,7.20
2022-01-23T10:00:00,pth,14.40
2022-01-23T10:02:00,pth,14.40
2022-01-23T10:04:00,pth,13.21
2022-01-23T10:06:00,pth,14.40
2022-01-23T10:08:00,pth,13.20
2022-01-23T10:10:00,pth,14.40
2022-01-23T10:11:00,pth,7.20
2022-01-23T10:13:00,pth,14.40
2022-01-23T10:15:00,pth,13.20
2022-01-23T10:17:00,pth,9.60
2022-01-23T10:18:00,pth,6.00
2022-01-23T10:20:00,pth,9.60
2022-01-23T10:21:00,pth,7.20
2022-01-23T10:22:00,pth,7.20
2022-01-23T10:24:00,pth,8.40
2022-01-23T10:26:00,pth,9.60
2022-01-23T10:28:00,pth,13.20
2022-01-23T10:30:00,pth,9.60
2022-01-23T10:31:00,pth,7.20
2022-01-23T10:33:00,pth,8.40
2022-01-23T10:35:00,pth,9.59
2022-01-23T10:37:00,pth,13.21
2022-01-23T10:39:00,pth,8.39
2022-01-23T10:41:00,pth,10.80
2022-01-23T10:42:00,pth,4.80
2022-01-23T10:43:00,pth,7.20
2022-01-23T10:45:00,pth,8.40
2022-01-23T10:47:00,pth,10.80
2022-01-23T10:49:00,pth,7.20
2022-01-23T10:51:00,pth,3.60
2022-01-23T10:53:00,pth,3.60
2022-01-23T10:55:00,pth,3.60
2022-01-23T10:56:00,pth,1.20
2022-01-23T10:58:00,pth,3.60
2022-01-23T11:00:00,pth,3.60
2022-01-23T11:02:00,pth,3.60
2022-01-23T11:04:00,pth,3.60
2022-01-23T11:06:00,pth,3.60
2022-01-23T11:08:00,pth,2.40
2022-01-23T11:09:00,pth,2.40
2022-01-23T11:10:00,pth,1.20
2022-01-23T11:12:00,pth,3.60
2022-01-23T11:14:00,pth,2.40
2022-01-23T11:16:00,pth,3.60
2022-01-23T11:17:00,pth,2.40
2022-01-23T11:19:00,pth,3.60
2022-01-23T11:20:00,pth,1.20
2022-01-23T11:22:00,pth,3.60
2022-01-23T11:24:00,pth,3.60
2022-01-23T11:26:00,pth,3.60
2022-01-23T11:27:00,pth,1.20
2022-01-23T11:29:00,pth,4.80
2022-01-23T11:31:00,pth,3.60
2022-01-23T11:32:00,pth,2.40
2022-01-23T11:34:00,pth,4.80
2022-01-23T11:36:00,pth,6.00
2022-01-23T11:37:00,pth,2.40
2022-01-23T11:39:00,pth,3.60
2022-01-23T11:41:00,pth,4.80
2022-01-23T11:42:00,pth,1.20
2022-01-23T11:44:00,pth,4.80
2022-01-23T11:46:00,pth,3.60
2022-01-23T11:48:00,pth,4.80
2022-01-23T11:50:00,pth,4.80
2022-01-23T11:51:00,pth,2.40
2022-01-23T11:53:00,pth,3.60
2022-01-23T11:55:00,pth,3.60
2022-01-23T11:56:00,pth,2.40
2022-01-23T11:57:00,pth,2.40
2022-01-23T11:59:00,pth,3.60
2022-01-23T12:01:00,pth,3.60
2022-01-23T12:03:00,pth,4.80
2022-01-23T12:05:00,pth,3.60
2022-01-23T12:07:00,pth,4.80
2022-01-23T12:09:00,pth,3.60
2022-01-23T12:11:00,pth,3.60
2022-01-23T12:13:00,pth,3.60
2022-01-23T12:15:00,pth,3.60
2022-01-23T12:16:00,pth,1.20
2022-01-23T12:18:00,pth,3.60
2022-01-23T12:20:00,pth,4.80
2022-01-23T12:21:00,pth,1.19
2022-01-23T12:23:00,pth,3.60
2022-01-23T12:25:00,pth,3.60
2022-01-23T12:27:00,pth,3.60
2022-01-23T12:29:00,pth,3.60
2022-01-23T12:31:00,pth,3.60
2022-01-23T12:33:00,pth,3.60
2022-01-23T12:34:00,pth,2.40
2022-01-23T12:36:00,pth,3.60
2022-01-23T12:38:00,pth,3.60
2022-01-23T12:39:00,pth,2.40
2022-01-23T12:41:00,pth,8.40
2022-01-23T12:43:00,pth,14.40
2022-01-23T12:45:00,pth,14.40
2022-01-23T12:46:00,pth,7.20
2022-01-23T12:48:00,pth,14.40
2022-01-23T12:50:00,pth,14.40
2022-01-23T12:52:00,pth,14.40
2022-01-23T12:54:00,pth,14.40
2022-01-23T12:56:00,pth,14.40
2022-01-23T12:58:00,pth,14.40
2022-01-23T13:00:00,pth,14.41
2022-01-23T13:01:00,pth,7.20
2022-01-23T13:03:00,pth,12.00
2022-01-23T13:05:00,pth,14.40
2022-01-23T13:07:00,pth,10.80
2022-01-23T13:09:00,pth,12.00
2022-01-23T13:11:00,pth,13.20
2022-01-23T13:12:00,pth,3.60
2022-01-23T13:14:00,pth,13.20
2022-01-23T13:15:00,pth,4.80
2022-01-23T13:17:00,pth,10.80
2022-01-23T13:19:00,pth,13.20
2022-01-23T13:20:00,pth,3.60
2022-01-23T13:21:00,pth,7.20
2022-01-23T13:23:00,pth,9.59
2022-01-23T13:24:00,pth,6.01
2022-01-23T13:25:00,pth,4.80
2022-01-23T13:27:00,pth,12.00
2022-01-23T13:29:00,pth,15.60
2022-01-23T13:30:00,pth,6.01
2022-01-23T13:32:00,pth,12.00
2022-01-23T13:34:00,pth,12.00
2022-01-23T13:35:00,pth,7.20
2022-01-23T13:37:00,pth,10.80
2022-01-23T13:38:00,pth,2.40
2022-01-23T13:40:00,pth,6.00
2022-01-23T13:41:00,pth,2.40
2022-01-23T13:43:00,pth,3.60
2022-01-23T13:45:00,pth,3.60
2022-01-23T13:46:00,pth,1.19
2022-01-23T13:48:00,pth,3.60
2022-01-23T13:50:00,pth,3.60
2022-01-23T13:52:00,pth,3.60
2022-01-23T13:54:00,pth,3.60
2022-01-23T13:55:00,pth,2.40
2022-01-23T13:57:00,pth,3.60
2022-01-23T13:58:00,pth,1.19
2022-01-23T14:00:00,pth,3.60
2022-01-23T14:02:00,pth,3.60
2022-01-23T14:04:00,pth,3.60
2022-01-23T14:06:00,pth,3.60
2022-01-23T14:07:00,pth,1.19
2022-01-23T14:09:00,pth,3.60
2022-01-23T14:10:00,pth,2.40
2022-01-23T14:12:00,pth,3.60
2022-01-23T14:14:00,pth,2.40
2022-01-23T14:15:00,pth,2.40
2022-01-23T14:16:00,pth,1.20
2022-01-23T14:18:00,pth,3.60
2022-01-23T14:20:00,pth,3.60
2022-01-23T14:21:00,pth,1.20
2022-01-23T14:23:00,pth,3.60
2022-01-23T14:25:00,pth,2.40
2022-01-23T14:27:00,pth,3.60
2022-01-23T14:29:00,pth,2.40
2022-01-23T14:31:00,pth,3.60
2022-01-23T14:32:00,pth,1.20
2022-01-23T14:34:00,pth,3.60
2022-01-23T14:36:00,pth,3.60
2022-01-23T14:37:00,pth,1.20
2022-01-23T14:39:00,pth,3.60
2022-01-23T14:40:00,pth,1.20
2022-01-23T14:42:00,pth,4.80
2022-01-23T14:44:00,pth,3.60
2022-01-23T14:46:00,pth,3.60
2022-01-23T14:48:00,pth,2.40
2022-01-23T14:49:00,pth,2.40
2022-01-23T14:51:00,pth,3.60
2022-01-23T14:52:00,pth,1.20
2022-01-23T14:54:00,pth,3.60
2022-01-23T14:55:00,pth,1.20
2022-01-23T14:57:00,pth,4.80
2022-01-23T14:59:00,pth,3.60
2022-01-23T15:00:00,pth,1.19
2022-01-23T15:02:00,pth,3.60
2022-01-23T15:04:00,pth,2.40
2022-01-23T15:05:00,pth,1.19
2022-01-23T15:06:00,pth,2.40
2022-01-23T15:08:00,pth,2.40
2022-01-23T15:09:00,pth,2.40
2022-01-23T15:11:00,pth,2.40
2022-01-23T15:12:00,pth,2.40
2022-01-23T15:14:00,pth,2.40
2022-01-23T15:16:00,pth,3.60
2022-01-23T15:18:00,pth,2.40
2022-01-23T15:20:00,pth,4.80
2022-01-23T15:22:00,pth,3.60
2022-01-23T15:24:00,pth,2.40
2022-01-23T15:25:00,pth,2.40
2022-01-23T15:27:00,pth,3.60
2022-01-23T15:29:00,pth,3.60
2022-01-23T15:31:00,pth,3.60
2022-01-23T15:33:00,pth,3.60
2022-01-23T15:35:00,pth,3.60
2022-01-23T15:36:00,pth,1.19
2022-01-23T15:38:00,pth,3.60
2022-01-23T15:40:00,pth,3.60
2022-01-23T15:42:00,pth,3.60
2022-01-23T15:44:00,pth,3.60
2022-01-23T15:45:00,pth,1.20
2022-01-23T15:47:00,pth,2.40
2022-01-23T15:48:00,pth,2.40
2022-01-23T15:50:00,pth,3.60
2022-01-23T15:52:00,pth,3.60
2022-01-23T15:54:00,pth,3.60
2022-01-23T15:56:00,pth,6.00
2022-01-23T15:57:00,pth,3.60
2022-01-23T15:58:00,pth,2.40
2022-01-23T16:00:00,pth,7.20
2022-01-23T16:02:00,pth,6.00
2022-01-23T16:04:00,pth,3.60
2022-01-23T16:06:00,pth,3.60
2022-01-23T16:07:00,pth,2.40
2022-01-23T16:09:00,pth,3.60
2022-01-23T16:10:00,pth,2.40
2022-01-23T16:12:00,pth,3.60
2022-01-23T16:14:00,pth,3.60
2022-01-23T16:15:00,pth,2.40
2022-01-23T16:17:00,pth,3.60
2022-01-23T16:19:00,pth,3.60
2022-01-23T16:20:00,pth,1.19
2022-01-23T16:21:00,pth,1.20
2022-01-23T16:23:00,pth,3.60
2022-01-23T16:25:00,pth,3.60
2022-01-23T16:27:00,pth,3.60
2022-01-23T16:29:00,pth,3.60
2022-01-23T16:30:00,pth,1.20
2022-01-23T16:32:00,pth,3.60
2022-01-23T16:34:00,pth,3.60
2022-01-23T16:36:00,pth,2.40
2022-01-23T16:38:00,pth,3.60
2022-01-23T16:40:00,pth,3.60
2022-01-23T16:42:00,pth,3.60
2022-01-23T16:43:00,pth,1.20
2022-01-23T16:45:00,pth,3.60
2022-01-23T16:46:00,pth,2.40
2022-01-23T16:48:00,pth,2.40
2022-01-23T16:49:00,pth,2.40
2022-01-23T16:50:00,pth,1.20
2022-01-23T16:52:00,pth,3.60
2022-01-23T16:54:00,pth,3.60
2022-01-23T16:56:00,pth,2.40
2022-01-23T16:58:00,pth,4.80
2022-01-23T16:59:00,pth,1.20
2022-01-23T17:01:00,pth,4.80
2022-01-23T17:03:00,pth,4.80
2022-01-23T17:04:00,pth,2.40
2022-01-23T17:05:00,pth,1.20
2022-01-23T17:07:00,pth,4.80
2022-01-23T17:09:00,pth,4.80
2022-01-23T17:10:00,pth,1.19
2022-01-23T17:12:00,pth,4.80
2022-01-23T17:14:00,pth,4.80
2022-01-23T17:15:00,pth,1.20
2022-01-23T17:17:00,pth,4.80
2022-01-23T17:18:00,pth,2.40
2022-01-23T17:20:00,pth,3.60
2022-01-23T17:22:00,pth,4.80
2022-01-23T17:24:00,pth,4.80
2022-01-23T17:25:00,pth,2.40
2022-01-23T17:27:00,pth,3.60
2022-01-23T17:29:00,pth,4.80
2022-01-23T17:31:00,pth,4.80
2022-01-23T17:33:00,pth,3.60
2022-01-23T17:34:00,pth,2.40
2022-01-23T17:36:00,pth,4.80
2022-01-23T17:37:00,pth,1.20
2022-01-23T17:38:00,pth,2.40
2022-01-23T17:40:00,pth,4.80
2022-01-23T17:41:00,pth,1.19
2022-01-23T17:43:00,pth,4.80
2022-01-23T17:44:00,pth,2.40
2022-01-23T17:46:00,pth,4.80
2022-01-23T17:48:00,pth,4.80
2022-01-23T17:49:00,pth,2.40
2022-01-23T17:51:00,pth,4.80
2022-01-23T17:53:00,pth,3.60
2022-01-23T17:55:00,pth,4.80
2022-01-23T17:56:00,pth,2.40
2022-01-23T17:58:00,pth,4.80
2022-01-23T18:00:00,pth,4.80
2022-01-23T18:02:00,pth,4.80
2022-01-23T18:03:00,pth,2.40
2022-01-23T18:04:00,pth,2.40
2022-01-23T18:06:00,pth,3.60
2022-01-23T18:08:00,pth,4.80
2022-01-23T18:10:00,pth,4.80
2022-01-23T18:11:00,pth,2.40
2022-01-23T18:13:00,pth,3.60
2022-01-23T18:15:00,pth,4.80
2022-01-23T18:17:00,pth,4.80
2022-01-23T18:19:00,pth,4.80
2022-01-23T18:21:00,pth,3.60
2022-01-23T18:23:00,pth,4.80
2022-01-23T18:25:00,pth,4.80
2022-01-23T18:27:00,pth,4.80
2022-01-23T18:29:00,pth,4.80
2022-01-23T18:31:00,pth,4.80
2022-01-23T18:33:00,pth,4.80
2022-01-23T18:34:00,pth,2.40
2022-01-23T18:36:00,pth,6.00
2022-01-23T18:38:00,pth,4.80
2022-01-23T18:40:00,pth,4.80
2022-01-23T18:41:00,pth,2.40
2022-01-23T18:43:00,pth,4.80
2022-01-23T18:45:00,pth,4.80
2022-01-23T18:47:00,pth,3.60
2022-01-23T18:49:00,pth,4.80
2022-01-23T18:51:00,pth,3.60
2022-01-23T18:53:00,pth,4.80
2022-01-23T18:54:00,pth,1.20
2022-01-23T18:56:00,pth,4.80
2022-01-23T18:57:00,pth,2.40
2022-01-23T18:58:00,pth,1.20
2022-01-23T19:00:00,pth,4.80
2022-01-23T19:01:00,pth,2.40
2022-01-23T19:03:00,pth,4.80
2022-01-23T19:05:00,pth,3.60
2022-01-23T19:06:00,pth,2.40
2022-01-23T19:08:00,pth,4.80
2022-01-23T19:09:00,pth,2.40
2022-01-23T19:11:00,pth,4.80
2022-01-23T19:12:00,pth,2.40
2022-01-23T19:14:00,pth,3.60
2022-01-23T19:16:00,pth,4.80
2022-01-23T19:17:00,pth,2.40
2022-01-23T19:19:00,pth,4.80
2022-01-23T19:20:00,pth,1.19
2022-01-23T19:21:00,pth,2.40
2022-01-23T19:23:00,pth,4.80
2022-01-23T19:24:00,pth,2.40
2022-01-23T19:26:00,pth,3.60
2022-01-23T19:27:00,pth,2.40
2022-01-23T19:29:00,pth,4.80
2022-01-23T19:30:00,pth,1.19
2022-01-23T19:32:00,pth,4.80
2022-01-23T19:34:00,pth,4.80
2022-01-23T19:36:00,pth,3.60
2022-01-23T19:38:00,pth,4.80
2022-01-23T19:40:00,pth,4.80
2022-01-23T19:42:00,pth,4.80
2022-01-23T19:44:00,pth,4.80
2022-01-23T19:46:00,pth,6.00
2022-01-23T19:47:00,pth,2.40
2022-01-23T19:49:00,pth,4.80
2022-01-23T19:51:00,pth,4.80
2022-01-23T19:53:00,pth,4.80
2022-01-23T19:54:00,pth,2.40
2022-01-23T19:56:00,pth,4.80
2022-01-23T19:58:00,pth,4.80
2022-01-23T20:00:00,pth,3.60
2022-01-23T20:01:00,pth,2.40
2022-01-23T20:02:00,pth,2.40
2022-01-23T20:04:00,pth,4.80
2022-01-23T20:06:00,pth,4.80
2022-01-23T20:07:00,pth,1.20
2022-01-23T20:09:00,pth,15.60
2022-01-23T20:10:00,pth,7.20
2022-01-23T20:12:00,pth,15.60
2022-01-23T20:13:00,pth,8.40
2022-01-23T20:15:00,pth,15.60
2022-01-23T20:17:00,pth,15.60
2022-01-23T20:18:00,pth,7.20
2022-01-23T20:19:00,pth,7.20
2022-01-23T20:21:00,pth,15.60
2022-01-23T20:22:00,pth,7.20
2022-01-23T20:24:00,pth,15.60
2022-01-23T20:25:00,pth,7.20
2022-01-23T20:26:00,pth,8.39
2022-01-23T20:28:00,pth,14.41
2022-01-23T20:30:00,pth,15.59
2022-01-23T20:31:00,pth,7.20
2022-01-23T20:33:00,pth,15.60
2022-01-23T20:35:00,pth,15.60
2022-01-23T20:37:00,pth,15.60
2022-01-23T20:39:00,pth,15.60
2022-01-23T20:40:00,pth,8.40
2022-01-23T20:42:00,pth,10.80
2022-01-23T20:43:00,pth,2.40
2022-01-23T20:45:00,pth,4.80
2022-01-23T20:47:00,pth,6.00
2022-01-23T20:49:00,pth,4.80
2022-01-23T20:51:00,pth,3.60
2022-01-23T20:52:00,pth,2.40
2022-01-23T20:54:00,pth,4.80
2022-01-23T20:56:00,pth,3.60
2022-01-23T20:57:00,pth,2.40
2022-01-23T20:59:00,pth,4.80
2022-01-23T21:00:00,pth,7.20
2022-01-23T21:02:00,pth,15.60
2022-01-23T21:04:00,pth,18.00
2022-01-23T21:06:00,pth,20.40
2022-01-23T21:08:00,pth,20.40
2022-01-23T21:09:00,pth,9.60
2022-01-23T21:11:00,pth,19.20
2022-01-23T21:12:00,pth,10.80
2022-01-23T21:14:00,pth,19.20
2022-01-23T21:16:00,pth,20.40
2022-01-23T21:18:00,pth,18.00
2022-01-23T21:20:00,pth,8.40
2022-01-23T21:22:00,pth,19.20
2022-01-23T21:23:00,pth,9.60
2022-01-23T21:25:00,pth,10.80
2022-01-23T21:27:00,pth,20.40
2022-01-23T21:29:00,pth,15.60
2022-01-23T21:31:00,pth,15.60
2022-01-23T21:33:00,pth,20.40
2022-01-23T21:34:00,pth,4.80
2022-01-23T21:36:00,pth,15.60
2022-01-23T21:37:00,pth,9.59
2022-01-23T21:38:00,pth,9.60
2022-01-23T21:39:00,pth,6.00
2022-01-23T21:40:00,pth,6.01
2022-01-23T21:42:00,pth,19.20
2022-01-23T21:43:00,pth,8.40
2022-01-23T21:45:00,pth,6.00
2022-01-23T21:47:00,pth,13.20
2022-01-23T21:49:00,pth,4.80
2022-01-23T21:51:00,pth,4.80
2022-01-23T21:52:00,pth,2.40
2022-01-23T21:54:00,pth,4.80
2022-01-23T21:56:00,pth,6.00
2022-01-23T21:58:00,pth,6.01
2022-01-23T22:00:00,pth,4.80
2022-01-23T22:01:00,pth,2.40
2022-01-23T22:03:00,pth,6.00
2022-01-23T22:04:00,pth,2.40
2022-01-23T22:06:00,pth,4.80
2022-01-23T22:08:00,pth,4.80
2022-01-23T22:10:00,pth,4.80
2022-01-23T22:12:00,pth,6.00
2022-01-23T22:14:00,pth,4.80
2022-01-23T22:16:00,pth,6.00
2022-01-23T22:17:00,pth,3.60
2022-01-23T22:19:00,pth,8.40
2022-01-23T22:20:00,pth,3.60
2022-01-23T22:22:00,pth,4.80
2022-01-23T22:24:00,pth,6.00
2022-01-23T22:26:00,pth,4.80
2022-01-23T22:28:00,pth,4.80
2022-01-23T22:29:00,pth,2.40
2022-01-23T22:31:00,pth,4.80
2022-01-23T22:33:00,pth,4.80
2022-01-23T22:35:00,pth,4.80
2022-01-23T22:37:00,pth,3.60
2022-01-23T22:39:00,pth,4.80
2022-01-23T22:41:00,pth,4.80
2022-01-23T22:43:00,pth,4.80
2022-01-23T22:45:00,pth,3.60
2022-01-23T22:47:00,pth,4.80
2022-01-23T22:48:00,pth,1.20
2022-01-23T22:50:00,pth,4.80
2022-01-23T22:52:00,pth,3.60
2022-01-23T22:54:00,pth,4.80
2022-01-23T22:55:00,pth,2.40
2022-01-23T22:57:00,pth,3.60
2022-01-23T22:58:00,pth,2.40
2022-01-23T23:00:00,pth,4.80
2022-01-23T23:01:00,pth,1.20
2022-01-23T23:02:00,pth,2.40
2022-01-23T23:04:00,pth,4.80
2022-01-23T23:06:00,pth,6.00
2022-01-23T23:07:00,pth,2.40
2022-01-23T23:08:00,pth,2.40
2022-01-23T23:10:00,pth,4.80
2022-01-23T23:12:00,pth,4.80
2022-01-23T23:14:00,pth,4.80